STARLINK AT

Last updated on Sat Jul 15 2023 00:02:05 GMT+0000 (Coordinated Universal Time)

1 57259U 23094AT 23195.75001157 -.01066350 33951-3 -30074-2 0 9995 2 57259 42.9953 276.0416 0026949 199.7692 244.5712 15.91906115 1308

Satellite not in orbit